�������l�o���
Date,Time,MP-1(��Sv/h),MP-2(��Sv/h),MP-3(��Sv/h),MP-4(��Sv/h),MP-5(��Sv/h),MP-6(��Sv/h),MP-7(��Sv/h),MP-8(��Sv/h),����,����(m/s),���J
2018/04/10,00:00,0.865,1.442,0.897,1.676,1.152,0.481,0.850,0.817,�k��,0.6,��
2018/04/10,00:10,0.864,1.438,0.898,1.677,1.154,0.482,0.851,0.817,-,CALM,��
2018/04/10,00:20,0.864,1.443,0.900,1.678,1.156,0.483,0.850,0.816,�k�k��,0.6,��
2018/04/10,00:30,0.862,1.443,0.898,1.676,1.154,0.482,0.851,0.817,�k�k��,0.6,��
2018/04/10,00:40,0.865,1.443,0.899,1.675,1.152,0.482,0.851,0.817,�k�k��,1.5,��
2018/04/10,00:50,0.863,1.444,0.897,1.674,1.155,0.483,0.850,0.816,�k�k��,1.2,��
2018/04/10,01:00,0.862,1.442,0.898,1.675,1.153,0.481,0.851,0.814,���k��,0.9,��
2018/04/10,01:10,0.862,1.443,0.898,1.676,1.154,0.481,0.849,0.816,��,1.5,��
2018/04/10,01:20,0.863,1.439,0.898,1.672,1.153,0.481,0.851,0.818,���쐼,2.2,��
2018/04/10,01:30,0.862,1.442,0.897,1.677,1.153,0.482,0.850,0.816,���쐼,2.6,��
2018/04/10,01:40,0.861,1.444,0.899,1.675,1.156,0.481,0.849,0.813,���쐼,3.3,��
2018/04/10,01:50,0.862,1.444,0.899,1.675,1.154,0.482,0.849,0.815,���쐼,3.9,��
2018/04/10,02:00,0.862,1.441,0.897,1.676,1.155,0.481,0.851,0.814,��,3.9,��
2018/04/10,02:10,0.862,1.444,0.898,1.674,1.152,0.482,0.850,0.817,��,3.2,��
2018/04/10,02:20,0.863,1.441,0.897,1.674,1.152,0.479,0.850,0.817,��,3.0,��
2018/04/10,02:30,0.862,1.441,0.897,1.676,1.155,0.481,0.850,0.817,��,3.0,��
2018/04/10,02:40,0.861,1.444,0.898,1.674,1.154,0.481,0.850,0.816,���k��,2.0,��
2018/04/10,02:50,0.861,1.440,0.897,1.675,1.152,0.481,0.849,0.814,��,1.4,��
2018/04/10,03:00,0.863,1.445,0.896,1.676,1.152,0.480,0.849,0.814,���쐼,1.7,��
2018/04/10,03:10,0.860,1.443,0.897,1.678,1.154,0.481,0.850,0.816,���쐼,1.2,��
2018/04/10,03:20,0.863,1.441,0.895,1.672,1.154,0.480,0.848,0.817,���쐼,1.7,��
2018/04/10,03:30,0.860,1.443,0.896,1.674,1.151,0.481,0.848,0.815,���쐼,2.6,��
2018/04/10,03:40,0.859,1.443,0.897,1.674,1.151,0.479,0.849,0.815,���쐼,3.0,��
2018/04/10,03:50,0.861,1.440,0.897,1.675,1.152,0.480,0.848,0.816,���쐼,2.6,��
2018/04/10,04:00,0.858,1.441,0.896,1.675,1.152,0.481,0.849,0.814,���쐼,2.9,��
2018/04/10,04:10,0.860,1.441,0.896,1.676,1.151,0.481,0.849,0.815,�쐼,2.3,��
2018/04/10,04:20,0.862,1.440,0.898,1.676,1.151,0.480,0.850,0.815,���쐼,3.0,��
2018/04/10,04:30,0.861,1.441,0.896,1.674,1.151,0.481,0.850,0.817,���쐼,3.2,��
2018/04/10,04:40,0.860,1.442,0.897,1.674,1.150,0.481,0.849,0.816,���쐼,3.0,��
2018/04/10,04:50,0.861,1.441,0.897,1.675,1.153,0.480,0.850,0.816,���쐼,3.5,��
2018/04/10,05:00,0.863,1.442,0.896,1.673,1.153,0.480,0.851,0.816,���쐼,3.4,��
2018/04/10,05:10,0.860,1.439,0.897,1.673,1.151,0.480,0.848,0.817,���쐼,4.4,��
2018/04/10,05:20,0.860,1.441,0.897,1.673,1.152,0.480,0.850,0.816,���쐼,4.3,��
2018/04/10,05:30,0.863,1.437,0.895,1.674,1.150,0.480,0.849,0.815,���쐼,4.7,��
2018/04/10,05:40,0.860,1.439,0.896,1.673,1.150,0.479,0.849,0.817,���쐼,4.5,��
2018/04/10,05:50,0.861,1.442,0.896,1.676,1.152,0.481,0.849,0.816,���쐼,5.7,��
2018/04/10,06:00,0.862,1.441,0.896,1.675,1.151,0.479,0.850,0.814,���쐼,5.0,��
2018/04/10,06:10,0.860,1.441,0.894,1.675,1.152,0.480,0.851,0.816,���쐼,4.0,��
2018/04/10,06:20,0.861,1.443,0.896,1.676,1.150,0.479,0.851,0.817,��,4.6,��
2018/04/10,06:30,0.861,1.442,0.897,1.678,1.153,0.480,0.852,0.815,��,3.3,��
2018/04/10,06:40,0.861,1.445,0.897,1.678,1.152,0.482,0.852,0.817,��,2.8,��
2018/04/10,06:50,0.861,1.443,0.896,1.673,1.152,0.482,0.851,0.816,���k��,3.9,��
2018/04/10,07:00,0.861,1.443,0.896,1.671,1.151,0.481,0.852,0.817,���k��,4.0,��
2018/04/10,07:10,0.861,1.444,0.896,1.672,1.153,0.483,0.852,0.817,��,2.2,��
2018/04/10,07:20,0.861,1.445,0.897,1.673,1.150,0.481,0.854,0.817,���k��,1.5,��
2018/04/10,07:30,0.862,1.444,0.897,1.672,1.155,0.484,0.854,0.816,���k��,2.0,��
2018/04/10,07:40,0.862,1.444,0.897,1.675,1.154,0.481,0.851,0.816,���k��,2.3,��
2018/04/10,07:50,0.862,1.445,0.897,1.674,1.153,0.483,0.853,0.816,�k�k��,1.5,��
2018/04/10,08:00,0.862,1.442,0.899,1.672,1.156,0.480,0.851,0.817,�k,2.0,��
2018/04/10,08:10,0.863,1.442,0.897,1.673,1.154,0.481,0.853,0.818,�k�k��,2.3,��
2018/04/10,08:20,0.865,1.442,0.899,1.674,1.154,0.481,0.852,0.819,�k,2.3,��
2018/04/10,08:30,0.865,1.439,0.899,1.673,1.156,0.479,0.852,0.819,�k��,2.9,��
2018/04/10,08:40,0.864,1.442,0.898,1.673,1.155,0.479,0.849,0.817,�k��,3.6,��
2018/04/10,08:50,0.864,1.442,0.897,1.678,1.156,0.478,0.850,0.817,�k��,4.2,��
2018/04/10,09:00,0.863,1.442,0.897,1.675,1.155,0.479,0.851,0.815,�k��,4.4,��
2018/04/10,09:10,0.865,1.443,0.897,1.675,1.156,0.478,0.848,0.815,���k��,3.6,��
2018/04/10,09:20,0.864,1.442,0.897,1.678,1.155,0.478,0.850,0.814,���k��,4.2,��
2018/04/10,09:30,0.864,1.442,0.897,1.678,1.157,0.478,0.852,0.815,���k��,3.7,��
2018/04/10,09:40,0.865,1.443,0.898,1.675,1.159,0.480,0.850,0.814,���k��,3.7,��
2018/04/10,09:50,0.865,1.443,0.898,1.679,1.160,0.480,0.851,0.815,���k��,3.2,��
2018/04/10,10:00,0.865,1.445,0.897,1.676,1.157,0.480,0.850,0.814,���k��,3.5,��
2018/04/10,10:10,0.866,1.442,0.900,1.677,1.159,0.479,0.851,0.814,��,3.6,��
2018/04/10,10:20,0.867,1.443,0.900,1.677,1.156,0.481,0.851,0.814,���k��,3.6,��
2018/04/10,10:30,0.864,1.442,0.900,1.676,1.156,0.479,0.850,0.814,���k��,3.4,��
2018/04/10,10:40,0.868,1.441,0.898,1.679,1.157,0.480,0.851,0.814,���k��,3.9,��
2018/04/10,10:50,0.867,1.445,0.899,1.679,1.160,0.482,0.851,0.814,���k��,3.7,��
2018/04/10,11:00,0.868,1.445,0.901,1.677,1.156,0.478,0.850,0.815,���k��,3.4,��
2018/04/10,11:10,0.867,1.446,0.900,1.674,1.157,0.481,0.849,0.815,��,4.5,��
2018/04/10,11:20,0.868,1.448,0.899,1.677,1.157,0.481,0.852,0.815,��,4.2,��
2018/04/10,11:30,0.866,1.446,0.899,1.678,1.160,0.481,0.850,0.815,��,4.3,��
2018/04/10,11:40,0.867,1.449,0.902,1.676,1.158,0.481,0.851,0.815,���k��,4.1,��
2018/04/10,11:50,0.869,1.447,0.898,1.678,1.159,0.481,0.852,0.816,���k��,4.2,��
2018/04/10,12:00,0.868,1.447,0.899,1.680,1.154,0.481,0.853,0.815,��,4.1,��
2018/04/10,12:10,0.867,1.446,0.899,1.678,1.159,0.481,0.852,0.814,���k��,3.6,��
2018/04/10,12:20,0.868,1.450,0.900,1.675,1.160,0.482,0.853,0.816,�k��,3.9,��
2018/04/10,12:30,0.869,1.450,0.898,1.678,1.162,0.483,0.851,0.814,���k��,3.7,��
2018/04/10,12:40,0.868,1.452,0.898,1.677,1.161,0.484,0.852,0.816,��,3.6,��
2018/04/10,12:50,0.869,1.451,0.896,1.680,1.163,0.484,0.853,0.815,���쓌,3.5,��
2018/04/10,13:00,0.869,1.451,0.899,1.679,1.161,0.485,0.854,0.817,���쓌,4.1,��
2018/04/10,13:10,0.871,1.448,0.900,1.678,1.162,0.483,0.853,0.816,���쓌,3.6,��
2018/04/10,13:20,0.869,1.450,0.900,1.679,1.162,0.483,0.852,0.816,���쓌,3.6,��
2018/04/10,13:30,0.868,1.450,0.901,1.682,1.162,0.484,0.853,0.815,�쓌,4.5,��
2018/04/10,13:40,0.870,1.449,0.899,1.682,1.161,0.482,0.851,0.815,���쓌,4.5,��
2018/04/10,13:50,0.867,1.449,0.900,1.678,1.163,0.484,0.853,0.815,���쓌,4.1,��
2018/04/10,14:00,0.867,1.449,0.900,1.678,1.163,0.484,0.853,0.817,���쓌,4.1,��
2018/04/10,14:10,0.867,1.450,0.900,1.681,1.162,0.483,0.852,0.817,�쓌,3.6,��
2018/04/10,14:20,0.867,1.452,0.902,1.678,1.165,0.482,0.854,0.816,���쓌,3.5,��
2018/04/10,14:30,0.866,1.452,0.899,1.680,1.162,0.482,0.853,0.816,�쓌,3.7,��
2018/04/10,14:40,0.869,1.451,0.901,1.680,1.161,0.482,0.855,0.817,���쓌,3.3,��
2018/04/10,14:50,0.870,1.451,0.901,1.682,1.161,0.481,0.852,0.816,��쓌,3.9,��
2018/04/10,15:00,0.870,1.449,0.900,1.680,1.162,0.483,0.854,0.815,��쓌,5.1,��
2018/04/10,15:10,0.870,1.450,0.901,1.682,1.162,0.482,0.853,0.816,��쓌,5.2,��
2018/04/10,15:20,0.869,1.453,0.903,1.677,1.162,0.483,0.853,0.816,��쓌,4.2,��
2018/04/10,15:30,0.868,1.453,0.903,1.675,1.164,0.483,0.854,0.815,��쓌,4.9,��
2018/04/10,15:40,0.870,1.454,0.900,1.678,1.164,0.484,0.854,0.817,��쓌,6.1,��
2018/04/10,15:50,0.871,1.451,0.902,1.678,1.163,0.485,0.855,0.815,��쓌,6.4,��
2018/04/10,16:00,0.869,1.453,0.901,1.679,1.163,0.483,0.855,0.817,��쓌,7.8,��
2018/04/10,16:10,0.870,1.455,0.902,1.679,1.165,0.482,0.853,0.816,��쓌,7.5,��
2018/04/10,16:20,0.870,1.457,0.903,1.677,1.163,0.484,0.853,0.818,��쓌,8.8,��
2018/04/10,16:30,0.871,1.455,0.902,1.680,1.162,0.485,0.853,0.817,��쓌,8.7,��
2018/04/10,16:40,0.870,1.458,0.904,1.682,1.164,0.485,0.855,0.815,��쓌,8.5,��
2018/04/10,16:50,0.873,1.455,0.904,1.681,1.165,0.484,0.854,0.817,��쓌,9.2,��
2018/04/10,17:00,0.871,1.455,0.903,1.684,1.164,0.486,0.855,0.817,��쓌,9.1,��
2018/04/10,17:10,0.872,1.454,0.905,1.683,1.164,0.485,0.854,0.818,��쓌,8.9,��
2018/04/10,17:20,0.873,1.456,0.907,1.684,1.164,0.485,0.854,0.819,��쓌,8.7,��
2018/04/10,17:30,0.872,1.455,0.908,1.685,1.166,0.485,0.855,0.819,��쓌,9.2,��
2018/04/10,17:40,0.873,1.461,0.907,1.686,1.164,0.486,0.854,0.818,��,8.4,��
2018/04/10,17:50,0.870,1.458,0.906,1.685,1.168,0.486,0.853,0.819,��쓌,10.0,��
2018/04/10,18:00,0.872,1.460,0.905,1.686,1.165,0.485,0.855,0.820,��,10.2,��
2018/04/10,18:10,0.870,1.457,0.907,1.686,1.167,0.486,0.855,0.818,��쓌,9.0,��
2018/04/10,18:20,0.872,1.458,0.907,1.685,1.167,0.486,0.855,0.819,��,7.4,��
2018/04/10,18:30,0.871,1.459,0.907,1.684,1.166,0.486,0.855,0.819,��,8.4,��
2018/04/10,18:40,0.872,1.458,0.905,1.684,1.167,0.486,0.855,0.819,��쓌,8.9,��
2018/04/10,18:50,0.871,1.460,0.905,1.684,1.167,0.485,0.855,0.818,��,9.1,��
2018/04/10,19:00,0.872,1.458,0.907,1.684,1.168,0.485,0.856,0.818,��,7.4,��
2018/04/10,19:10,0.870,1.456,0.907,1.685,1.167,0.485,0.856,0.820,��,7.0,��
2018/04/10,19:20,0.871,1.458,0.905,1.683,1.168,0.486,0.857,0.819,��,6.9,��
2018/04/10,19:30,0.872,1.460,0.905,1.685,1.167,0.487,0.856,0.820,��,6.9,��
2018/04/10,19:40,0.870,1.456,0.905,1.684,1.165,0.486,0.856,0.818,��,5.9,��
2018/04/10,19:50,0.870,1.461,0.904,1.685,1.168,0.485,0.854,0.819,��,6.9,��
2018/04/10,20:00,0.870,1.460,0.909,1.685,1.167,0.487,0.856,0.817,��,6.7,��
2018/04/10,20:10,0.871,1.458,0.905,1.684,1.166,0.486,0.858,0.818,��,7.0,��
2018/04/10,20:20,0.870,1.459,0.907,1.687,1.165,0.486,0.855,0.818,��,7.2,��
2018/04/10,20:30,0.873,1.457,0.905,1.685,1.165,0.486,0.857,0.821,��,8.0,��
2018/04/10,20:40,0.871,1.456,0.906,1.685,1.168,0.486,0.856,0.819,��,8.3,��
2018/04/10,20:50,0.870,1.460,0.906,1.685,1.165,0.485,0.857,0.818,��,6.7,��
2018/04/10,21:00,0.871,1.454,0.907,1.684,1.167,0.486,0.857,0.819,��,6.4,��
2018/04/10,21:10,0.870,1.454,0.905,1.683,1.167,0.486,0.854,0.817,��쐼,6.4,��
2018/04/10,21:20,0.869,1.457,0.906,1.683,1.166,0.485,0.856,0.819,��,7.1,��
2018/04/10,21:30,0.871,1.456,0.905,1.684,1.166,0.486,0.855,0.817,��,7.1,��
2018/04/10,21:40,0.873,1.456,0.909,1.684,1.165,0.486,0.855,0.818,��,8.3,��
2018/04/10,21:50,0.870,1.454,0.906,1.685,1.166,0.485,0.856,0.819,��,9.7,��
2018/04/10,22:00,0.870,1.457,0.908,1.682,1.166,0.485,0.856,0.820,��,9.2,��
2018/04/10,22:10,0.870,1.458,0.908,1.683,1.168,0.486,0.855,0.820,��,8.6,��
2018/04/10,22:20,0.872,1.459,0.907,1.684,1.165,0.485,0.856,0.819,��,9.1,��
2018/04/10,22:30,0.872,1.457,0.908,1.681,1.165,0.486,0.857,0.820,��,10.3,��
2018/04/10,22:40,0.872,1.456,0.907,1.684,1.166,0.486,0.856,0.818,��,9.9,��
2018/04/10,22:50,0.871,1.457,0.907,1.683,1.167,0.488,0.858,0.818,��,10.8,��
2018/04/10,23:00,0.872,1.455,0.907,1.683,1.166,0.486,0.857,0.817,��,9.2,��
2018/04/10,23:10,0.873,1.457,0.907,1.687,1.168,0.487,0.856,0.819,��,9.5,��
2018/04/10,23:20,0.871,1.458,0.907,1.686,1.166,0.487,0.858,0.821,��,9.4,��
2018/04/10,23:30,0.871,1.458,0.907,1.686,1.166,0.487,0.857,0.819,��,10.6,��
2018/04/10,23:40,0.872,1.459,0.907,1.683,1.166,0.487,0.857,0.819,��,8.7,��
2018/04/10,23:50,0.873,1.456,0.907,1.684,1.167,0.487,0.857,0.819,��,9.2,��
